![]() |
EMODnet Physics ERDDAP
Easier access to scientific data |
log in|
Brought to you by EMODnet Physics |
| Dataset Title: | NDBC - Collection of dew point temperature (DEWT) TimeSeries - IN SITU MultiPointTimeSeriesObservation
|
| Institution: | NDBC (Dataset ID: TS_DEWT_NDBC) |
| Information: | Summary
| License
| FGDC
| ISO 19115
| Metadata
| Background
| Subset
| Data Access Form
| Make a graph
|
| Name | Last modified | Size | Description | |
|---|---|---|---|---|
| Parent Directory | - | - | ||
| 42055_TS_DEWT_012006.nc | 26-Oct-2024 15:59 | 429297 | ||
| 42055_TS_DEWT_012007.nc | 26-Oct-2024 15:59 | 429292 | ||
| 42055_TS_DEWT_012008.nc | 26-Oct-2024 15:59 | 447783 | ||
| 42055_TS_DEWT_012009.nc | 26-Oct-2024 15:59 | 449692 | ||
| 42055_TS_DEWT_012011.nc | 26-Oct-2024 15:59 | 449161 | ||
| 42055_TS_DEWT_012012.nc | 26-Oct-2024 15:59 | 448444 | ||
| 42055_TS_DEWT_012013.nc | 26-Oct-2024 15:59 | 449664 | ||
| 42055_TS_DEWT_012014.nc | 26-Oct-2024 15:59 | 448650 | ||
| 42055_TS_DEWT_012015.nc | 26-Oct-2024 15:59 | 450320 | ||
| 42055_TS_DEWT_012016.nc | 26-Oct-2024 15:59 | 439200 | ||
| 42055_TS_DEWT_012017.nc | 26-Oct-2024 15:59 | 446525 | ||
| 42055_TS_DEWT_012018.nc | 26-Oct-2024 15:59 | 449056 | ||
| 42055_TS_DEWT_012019.nc | 26-Oct-2024 15:59 | 429493 | ||
| 42055_TS_DEWT_012020.nc | 26-Oct-2024 15:59 | 449600 | ||
| 42055_TS_DEWT_012021.nc | 26-Oct-2024 16:00 | 429493 | ||
| 42055_TS_DEWT_012022.nc | 26-Oct-2024 16:00 | 449950 | ||
| 42055_TS_DEWT_012023.nc | 26-Oct-2024 16:00 | 448599 | ||
| 42055_TS_DEWT_012024.nc | 26-Oct-2024 16:00 | 449216 | ||
| 42055_TS_DEWT_012025.nc | 07-Feb-2025 09:56 | 450458 | ||
| 42055_TS_DEWT_012026.nc | 02-Feb-2026 17:47 | 1112402 | ||
| 42055_TS_DEWT_022006.nc | 26-Oct-2024 16:00 | 1112288 | ||
| 42055_TS_DEWT_022008.nc | 26-Oct-2024 16:00 | 998136 | ||
| 42055_TS_DEWT_022009.nc | 26-Oct-2024 16:00 | 995729 | ||
| 42055_TS_DEWT_022011.nc | 26-Oct-2024 16:00 | 1110644 | ||
| 42055_TS_DEWT_022012.nc | 26-Oct-2024 16:00 | 1111808 | ||
| 42055_TS_DEWT_022013.nc | 26-Oct-2024 16:00 | 4946355 | ||
| 42055_TS_DEWT_022014.nc | 26-Oct-2024 16:00 | 422785 | ||
| 42055_TS_DEWT_022015.nc | 26-Oct-2024 16:00 | 426030 | ||
| 42055_TS_DEWT_022016.nc | 26-Oct-2024 16:00 | 425872 | ||
| 42055_TS_DEWT_022017.nc | 26-Oct-2024 16:00 | 427110 | ||
| 42055_TS_DEWT_022018.nc | 26-Oct-2024 16:00 | 429610 | ||
| 42055_TS_DEWT_022019.nc | 26-Oct-2024 16:00 | 429608 | ||
| 42055_TS_DEWT_022020.nc | 26-Oct-2024 16:00 | 429607 | ||
| 42055_TS_DEWT_022021.nc | 26-Oct-2024 16:00 | 429600 | ||
| 42055_TS_DEWT_022022.nc | 26-Oct-2024 16:00 | 424152 | ||
| 42055_TS_DEWT_022023.nc | 26-Oct-2024 16:00 | 428996 | ||
| 42055_TS_DEWT_022024.nc | 16-Sep-2024 16:51 | 429599 | ||
| 42055_TS_DEWT_022025.nc | 01-Mar-2025 06:50 | 426119 | ||
| 42055_TS_DEWT_022026.nc | 01-Mar-2026 07:06 | 429617 | ||
| 42055_TS_DEWT_032006.nc | 26-Oct-2024 16:01 | 429281 | ||
| 42055_TS_DEWT_032008.nc | 26-Oct-2024 16:01 | 423664 | ||
| 42055_TS_DEWT_032011.nc | 26-Oct-2024 16:01 | 429620 | ||
| 42055_TS_DEWT_032012.nc | 26-Oct-2024 16:01 | 429611 | ||
| 42055_TS_DEWT_032013.nc | 26-Oct-2024 16:01 | 429585 | ||
| 42055_TS_DEWT_032014.nc | 26-Oct-2024 16:01 | 429620 | ||
| 42055_TS_DEWT_032015.nc | 26-Oct-2024 16:01 | 429613 | ||
| 42055_TS_DEWT_032016.nc | 26-Oct-2024 16:01 | 429612 | ||
| 42055_TS_DEWT_032017.nc | 26-Oct-2024 16:01 | 429623 | ||
| 42055_TS_DEWT_032018.nc | 26-Oct-2024 16:01 | 449945 | ||
| 42055_TS_DEWT_032019.nc | 26-Oct-2024 16:01 | 449143 | ||
| 42055_TS_DEWT_032020.nc | 26-Oct-2024 16:01 | 449497 | ||
| 42055_TS_DEWT_032021.nc | 26-Oct-2024 16:01 | 450294 | ||
| 42055_TS_DEWT_032022.nc | 26-Oct-2024 16:01 | 450412 | ||
| 42055_TS_DEWT_032023.nc | 26-Oct-2024 16:01 | 440487 | ||
| 42055_TS_DEWT_032025.nc | 02-Apr-2025 05:30 | 450090 | ||
| 42055_TS_DEWT_032026.nc | 21-Mar-2026 09:51 | 429833 | ||
| 42055_TS_DEWT_042006.nc | 26-Oct-2024 16:01 | 450066 | ||
| 42055_TS_DEWT_042008.nc | 26-Oct-2024 16:01 | 449756 | ||
| 42055_TS_DEWT_042009.nc | 26-Oct-2024 16:01 | 429836 | ||
| 42055_TS_DEWT_042011.nc | 26-Oct-2024 16:01 | 449790 | ||
| 42055_TS_DEWT_042012.nc | 26-Oct-2024 16:01 | 429835 | ||
| 42055_TS_DEWT_042013.nc | 26-Oct-2024 16:01 | 450362 | ||
| 42055_TS_DEWT_042014.nc | 26-Oct-2024 16:01 | 450420 | ||
| 42055_TS_DEWT_042015.nc | 26-Oct-2024 16:02 | 432832 | ||
| 42055_TS_DEWT_042016.nc | 26-Oct-2024 16:02 | 449423 | ||
| 42055_TS_DEWT_042017.nc | 26-Oct-2024 16:02 | 451344 | ||
| 42055_TS_DEWT_042018.nc | 26-Oct-2024 16:02 | 1264409 | ||
| 42055_TS_DEWT_042019.nc | 26-Oct-2024 16:02 | 1268076 | ||
| 42055_TS_DEWT_042020.nc | 26-Oct-2024 16:02 | 1270292 | ||
| 42055_TS_DEWT_042021.nc | 26-Oct-2024 16:02 | 993266 | ||
| 42055_TS_DEWT_042022.nc | 26-Oct-2024 16:02 | 1007628 | ||
| 42055_TS_DEWT_042023.nc | 26-Oct-2024 16:02 | 1268748 | ||
| 42055_TS_DEWT_042025.nc | 01-May-2025 04:07 | 4825601 | ||
| 42055_TS_DEWT_052005.nc | 26-Oct-2024 16:02 | 426695 | ||
| 42055_TS_DEWT_052006.nc | 26-Oct-2024 16:02 | 430766 | ||
| 42055_TS_DEWT_052007.nc | 26-Oct-2024 16:02 | 426661 | ||
| 42055_TS_DEWT_052008.nc | 26-Oct-2024 16:02 | 426700 | ||
| 42055_TS_DEWT_052009.nc | 26-Oct-2024 16:02 | 424415 | ||
| 42055_TS_DEWT_052010.nc | 26-Oct-2024 16:02 | 429607 | ||
| 42055_TS_DEWT_052011.nc | 26-Oct-2024 16:02 | 429609 | ||
| 42055_TS_DEWT_052012.nc | 26-Oct-2024 16:03 | 429608 | ||
| 42055_TS_DEWT_052013.nc | 26-Oct-2024 16:03 | 429607 | ||
| 42055_TS_DEWT_052014.nc | 26-Oct-2024 16:03 | 428662 | ||
| 42055_TS_DEWT_052015.nc | 26-Oct-2024 16:03 | 429600 | ||
| 42055_TS_DEWT_052016.nc | 26-Oct-2024 16:03 | 429603 | ||
| 42055_TS_DEWT_052017.nc | 26-Oct-2024 16:03 | 426123 | ||
| 42055_TS_DEWT_052018.nc | 26-Oct-2024 16:03 | 429613 | ||
| 42055_TS_DEWT_052019.nc | 26-Oct-2024 16:03 | 429587 | ||
| 42055_TS_DEWT_052020.nc | 26-Oct-2024 16:03 | 428100 | ||
| 42055_TS_DEWT_052021.nc | 26-Oct-2024 16:03 | 424810 | ||
| 42055_TS_DEWT_052022.nc | 26-Oct-2024 16:03 | 429603 | ||
| 42055_TS_DEWT_052023.nc | 26-Oct-2024 16:03 | 429622 | ||
| 42055_TS_DEWT_052025.nc | 01-Jun-2025 04:15 | 429611 | ||
| 42055_TS_DEWT_062005.nc | 26-Oct-2024 16:03 | 429569 | ||
| 42055_TS_DEWT_062006.nc | 26-Oct-2024 16:03 | 429619 | ||
| 42055_TS_DEWT_062007.nc | 26-Oct-2024 16:03 | 429615 | ||
| 42055_TS_DEWT_062008.nc | 26-Oct-2024 16:03 | 429612 | ||
| 42055_TS_DEWT_062009.nc | 26-Oct-2024 16:03 | 450156 | ||
| 42055_TS_DEWT_062010.nc | 26-Oct-2024 16:03 | 450878 | ||
| 42055_TS_DEWT_062011.nc | 26-Oct-2024 16:03 | 449166 | ||
| 42055_TS_DEWT_062012.nc | 26-Oct-2024 16:03 | 450848 | ||
| 42055_TS_DEWT_062013.nc | 26-Oct-2024 16:03 | 449641 | ||
| 42055_TS_DEWT_062014.nc | 26-Oct-2024 16:03 | 450584 | ||
| 42055_TS_DEWT_062015.nc | 26-Oct-2024 16:04 | 449522 | ||
| 42055_TS_DEWT_062016.nc | 26-Oct-2024 16:04 | 429837 | ||
| 42055_TS_DEWT_062017.nc | 26-Oct-2024 16:04 | 450589 | ||
| 42055_TS_DEWT_062018.nc | 26-Oct-2024 16:04 | 449532 | ||
| 42055_TS_DEWT_062019.nc | 26-Oct-2024 16:04 | 429837 | ||
| 42055_TS_DEWT_062020.nc | 26-Oct-2024 16:04 | 449282 | ||
| 42055_TS_DEWT_062021.nc | 26-Oct-2024 16:04 | 429838 | ||
| 42055_TS_DEWT_062022.nc | 26-Oct-2024 16:04 | 451531 | ||
| 42055_TS_DEWT_062023.nc | 26-Oct-2024 16:04 | 450507 | ||
| 42055_TS_DEWT_062025.nc | 01-Jul-2025 04:18 | 450631 | ||
| 42055_TS_DEWT_072005.nc | 26-Oct-2024 16:04 | 478167 | ||
| 42055_TS_DEWT_072006.nc | 26-Oct-2024 16:04 | 450127 | ||
| 42055_TS_DEWT_072007.nc | 26-Oct-2024 16:04 | 1265477 | ||
| 42055_TS_DEWT_072008.nc | 26-Oct-2024 16:04 | 1266442 | ||
| 42055_TS_DEWT_072009.nc | 26-Oct-2024 16:04 | 1267234 | ||
| 42055_TS_DEWT_072010.nc | 26-Oct-2024 16:04 | 1144150 | ||
| 42055_TS_DEWT_072011.nc | 26-Oct-2024 16:04 | 658920 | ||
| 42055_TS_DEWT_072012.nc | 26-Oct-2024 16:04 | 1266845 | ||
| 42055_TS_DEWT_072013.nc | 26-Oct-2024 16:05 | 5617764 | ||
| 42055_TS_DEWT_072014.nc | 26-Oct-2024 16:05 | 430837 | ||
| 42055_TS_DEWT_072015.nc | 26-Oct-2024 16:05 | 430824 | ||
| 42055_TS_DEWT_072016.nc | 26-Oct-2024 16:05 | 426776 | ||
| 42055_TS_DEWT_072017.nc | 26-Oct-2024 16:05 | 425628 | ||
| 42055_TS_DEWT_072018.nc | 26-Oct-2024 16:05 | 427644 | ||
| 42055_TS_DEWT_072019.nc | 26-Oct-2024 16:05 | 429268 | ||
| 42055_TS_DEWT_072020.nc | 26-Oct-2024 16:05 | 424124 | ||
| 42055_TS_DEWT_072021.nc | 26-Oct-2024 16:05 | 429277 | ||
| 42055_TS_DEWT_072022.nc | 26-Oct-2024 16:05 | 429272 | ||
| 42055_TS_DEWT_072023.nc | 26-Oct-2024 16:05 | 427231 | ||
| 42055_TS_DEWT_072025.nc | 01-Aug-2025 04:26 | 429275 | ||
| 42055_TS_DEWT_082005.nc | 26-Oct-2024 16:05 | 429265 | ||
| 42055_TS_DEWT_082006.nc | 26-Oct-2024 16:05 | 427865 | ||
| 42055_TS_DEWT_082007.nc | 26-Oct-2024 16:05 | 429294 | ||
| 42055_TS_DEWT_082008.nc | 26-Oct-2024 16:05 | 429282 | ||
| 42055_TS_DEWT_082009.nc | 26-Oct-2024 16:05 | 428289 | ||
| 42055_TS_DEWT_082010.nc | 26-Oct-2024 16:05 | 429288 | ||
| 42055_TS_DEWT_082011.nc | 26-Oct-2024 16:06 | 429282 | ||
| 42055_TS_DEWT_082012.nc | 26-Oct-2024 16:06 | 429266 | ||
| 42055_TS_DEWT_082013.nc | 26-Oct-2024 16:06 | 429293 | ||
| 42055_TS_DEWT_082014.nc | 26-Oct-2024 16:06 | 429275 | ||
| 42055_TS_DEWT_082015.nc | 26-Oct-2024 16:06 | 429287 | ||
| 42055_TS_DEWT_082016.nc | 26-Oct-2024 16:06 | 429288 | ||
| 42055_TS_DEWT_082017.nc | 26-Oct-2024 16:06 | 429293 | ||
| 42055_TS_DEWT_082018.nc | 26-Oct-2024 16:06 | 449561 | ||
| 42055_TS_DEWT_082019.nc | 26-Oct-2024 16:06 | 449414 | ||
| 42055_TS_DEWT_082020.nc | 26-Oct-2024 16:06 | 450285 | ||
| 42055_TS_DEWT_082021.nc | 26-Oct-2024 16:06 | 447701 | ||
| 42055_TS_DEWT_082022.nc | 26-Oct-2024 16:06 | 449458 | ||
| 42055_TS_DEWT_082023.nc | 26-Oct-2024 16:06 | 449632 | ||
| 42055_TS_DEWT_082025.nc | 01-Sep-2025 04:30 | 448133 | ||
| 42055_TS_DEWT_092005.nc | 26-Oct-2024 16:06 | 429495 | ||
| 42055_TS_DEWT_092006.nc | 26-Oct-2024 16:06 | 448490 | ||
| 42055_TS_DEWT_092007.nc | 26-Oct-2024 16:06 | 438881 | ||
| 42055_TS_DEWT_092008.nc | 26-Oct-2024 16:06 | 429492 | ||
| 42055_TS_DEWT_092009.nc | 26-Oct-2024 16:06 | 449456 | ||
| 42055_TS_DEWT_092010.nc | 26-Oct-2024 16:06 | 444391 | ||
| 42055_TS_DEWT_092011.nc | 26-Oct-2024 16:06 | 448944 | ||
| 42055_TS_DEWT_092012.nc | 26-Oct-2024 16:06 | 448752 | ||
| 42055_TS_DEWT_092013.nc | 26-Oct-2024 16:07 | 448965 | ||
| 42055_TS_DEWT_092014.nc | 26-Oct-2024 16:07 | 1010302 | ||
| 42055_TS_DEWT_092015.nc | 26-Oct-2024 16:07 | 450288 | ||
| 42055_TS_DEWT_092016.nc | 26-Oct-2024 16:07 | 1114964 | ||
| 42055_TS_DEWT_092017.nc | 26-Oct-2024 16:07 | 988954 | ||
| 42055_TS_DEWT_092018.nc | 26-Oct-2024 16:07 | 1116748 | ||
| 42055_TS_DEWT_092019.nc | 26-Oct-2024 16:07 | 608036 | ||
| 42055_TS_DEWT_092020.nc | 26-Oct-2024 16:07 | 1117788 | ||
| 42055_TS_DEWT_092021.nc | 26-Oct-2024 16:07 | 1112769 | ||
| 42055_TS_DEWT_092022.nc | 26-Oct-2024 16:07 | 4652984 | ||
| 42055_TS_DEWT_092023.nc | 26-Oct-2024 16:07 | 434353 | ||
| 42055_TS_DEWT_092025.nc | 01-Oct-2025 04:07 | 426199 | ||
| 42055_TS_DEWT_102005.nc | 26-Oct-2024 16:07 | 425845 | ||
| 42055_TS_DEWT_102006.nc | 26-Oct-2024 16:07 | 429604 | ||
| 42055_TS_DEWT_102007.nc | 26-Oct-2024 16:07 | 429344 | ||
| 42055_TS_DEWT_102008.nc | 26-Oct-2024 16:07 | 429606 | ||
| 42055_TS_DEWT_102009.nc | 26-Oct-2024 16:07 | 424804 | ||
| 42055_TS_DEWT_102010.nc | 26-Oct-2024 16:07 | 429604 | ||
| 42055_TS_DEWT_102011.nc | 26-Oct-2024 16:07 | 429609 | ||
| 42055_TS_DEWT_102012.nc | 26-Oct-2024 16:07 | 429607 | ||
| 42055_TS_DEWT_102013.nc | 26-Oct-2024 16:07 | 429617 | ||
| 42055_TS_DEWT_102014.nc | 26-Oct-2024 16:07 | 429618 | ||
| 42055_TS_DEWT_102015.nc | 26-Oct-2024 16:07 | 429625 | ||
| 42055_TS_DEWT_102016.nc | 26-Oct-2024 16:07 | 429612 | ||
| 42055_TS_DEWT_102017.nc | 26-Oct-2024 16:08 | 429613 | ||
| 42055_TS_DEWT_102018.nc | 26-Oct-2024 16:08 | 429618 | ||
| 42055_TS_DEWT_102019.nc | 26-Oct-2024 16:08 | 429612 | ||
| 42055_TS_DEWT_102020.nc | 26-Oct-2024 16:08 | 429591 | ||
| 42055_TS_DEWT_102021.nc | 26-Oct-2024 16:08 | 429621 | ||
| 42055_TS_DEWT_102022.nc | 26-Oct-2024 16:08 | 429611 | ||
| 42055_TS_DEWT_102023.nc | 26-Oct-2024 16:08 | 429612 | ||
| 42055_TS_DEWT_102025.nc | 01-Nov-2025 06:14 | 429616 | ||
| 42055_TS_DEWT_112005.nc | 26-Oct-2024 16:08 | 450195 | ||
| 42055_TS_DEWT_112006.nc | 26-Oct-2024 16:08 | 451399 | ||
| 42055_TS_DEWT_112007.nc | 26-Oct-2024 16:08 | 449608 | ||
| 42055_TS_DEWT_112008.nc | 26-Oct-2024 16:08 | 451473 | ||
| 42055_TS_DEWT_112009.nc | 26-Oct-2024 16:08 | 451101 | ||
| 42055_TS_DEWT_112010.nc | 26-Oct-2024 16:08 | 449644 | ||
| 42055_TS_DEWT_112011.nc | 26-Oct-2024 16:08 | 450076 | ||
| 42055_TS_DEWT_112012.nc | 26-Oct-2024 16:08 | 429832 | ||
| 42055_TS_DEWT_112013.nc | 26-Oct-2024 16:08 | 451134 | ||
| 42055_TS_DEWT_112014.nc | 26-Oct-2024 16:08 | 446828 | ||
| 42055_TS_DEWT_112015.nc | 26-Oct-2024 16:08 | 429836 | ||
| 42055_TS_DEWT_112016.nc | 26-Oct-2024 16:08 | 449581 | ||
| 42055_TS_DEWT_112017.nc | 26-Oct-2024 16:08 | 449501 | ||
| 42055_TS_DEWT_112018.nc | 26-Oct-2024 16:09 | 449680 | ||
| 42055_TS_DEWT_112019.nc | 26-Oct-2024 16:09 | 449100 | ||
| 42055_TS_DEWT_112020.nc | 26-Oct-2024 16:09 | 450175 | ||
| 42055_TS_DEWT_112021.nc | 26-Oct-2024 16:09 | 450396 | ||
| 42055_TS_DEWT_112022.nc | 26-Oct-2024 16:09 | 1264285 | ||
| 42055_TS_DEWT_112023.nc | 26-Oct-2024 16:09 | 1264595 | ||
| 42055_TS_DEWT_112024.nc | 17-Jan-2025 14:42 | 1267082 | ||
| 42055_TS_DEWT_112025.nc | 01-Dec-2025 07:02 | 1269837 | ||
| 42055_TS_DEWT_122005.nc | 26-Oct-2024 16:09 | 5610915 | ||
| 42055_TS_DEWT_122006.nc | 26-Oct-2024 16:09 | 433631 | ||
| 42055_TS_DEWT_122007.nc | 26-Oct-2024 16:09 | 425988 | ||
| 42055_TS_DEWT_122008.nc | 26-Oct-2024 16:09 | 425627 | ||
| 42055_TS_DEWT_122009.nc | 26-Oct-2024 16:09 | 429268 | ||
| 42055_TS_DEWT_122010.nc | 26-Oct-2024 16:09 | 429268 | ||
| 42055_TS_DEWT_122011.nc | 26-Oct-2024 16:09 | 429269 | ||
| 42055_TS_DEWT_122012.nc | 26-Oct-2024 16:09 | 429268 | ||
| 42055_TS_DEWT_122013.nc | 26-Oct-2024 16:09 | 429277 | ||
| 42055_TS_DEWT_122014.nc | 26-Oct-2024 16:09 | 429270 | ||
| 42055_TS_DEWT_122015.nc | 26-Oct-2024 16:09 | 429274 | ||
| 42055_TS_DEWT_122016.nc | 26-Oct-2024 16:09 | 429292 | ||
| 42055_TS_DEWT_122017.nc | 26-Oct-2024 16:09 | 429286 | ||
| 42055_TS_DEWT_122018.nc | 26-Oct-2024 16:10 | 429275 | ||
| 42055_TS_DEWT_122019.nc | 26-Oct-2024 16:10 | 429293 | ||
| 42055_TS_DEWT_122020.nc | 26-Oct-2024 16:10 | 429291 | ||
| 42055_TS_DEWT_122021.nc | 26-Oct-2024 16:10 | 429288 | ||
| 42055_TS_DEWT_122022.nc | 26-Oct-2024 16:10 | 429276 | ||
| 42055_TS_DEWT_122023.nc | 26-Oct-2024 16:10 | 429288 | ||
| 42055_TS_DEWT_122024.nc | 22-Jan-2025 22:22 | 429263 | ||
| 42055_TS_DEWT_122025.nc | 01-Jan-2026 06:53 | 429294 | ||